Weather observations for the past three days for
St. Inigoes, Webster Field, Naval Electronic Systems Engineering Activity
Imperial (Metric)
Date Time (edt) Wind (mph) Vis. (mi.) Weather Sky Cond. Temperature (ºF) Relative Humidity Wind Chill (°F) Heat Index (°F) Pressure Precipitation (in)
Air Dwpt 6 hour altimeter (in) sea level (mb) 1 hr 3 hr 6 hr
Max. Min.
24 09:53 W 8 10.00 Overcast OVC012 77 75.9 96% 78 30.1 1019.2
24 08:53 W 9 10.00 Overcast OVC007 75.9 75 97% 75 30.1 1019.1
24 07:53 SW 8 10.00 Overcast OVC010 77 75 77 75.9 94% 78 30.1 1019.3 0.01
24 06:53 SW 6 10.00 Overcast OVC013 77 75 94% 78 30.09 1018.7
24 05:53 SW 5 10.00 Mostly Cloudy FEW011 SCT020 BKN080 75.9 75 97% 75 30.08 1018.6
24 04:53 SW 7 10.00 Partly Cloudy FEW009 SCT120 75.9 75 97% 75 30.07 1018.1 0.01
24 03:53 SW 7 10.00 Light Rain BKN013 BKN120 77 75.9 96% 78 30.08 1018.5
24 02:53 S 5 10.00 Mostly Cloudy FEW013 BKN019 77 75.9 96% 78 30.09 1018.7 0.01
24 01:53 S 6 10.00 Overcast FEW013 BKN021 OVC044 77 75.9 77 75 96% 78 30.09 1018.9 0.04
24 00:53 S 3 10.00 A Few Clouds FEW047 75.9 75.9 100% 75 30.1 1019.1
23 23:53 Calm 10.00 Mostly Cloudy BKN110 75.9 75.9 100% 75 30.1 1019.1
23 22:53 Calm 10.00 Overcast BKN050 OVC110 77 75.9 96% 78 30.1 1019.0 0.04
23 21:53 S 7 10.00 A Few Clouds FEW120 75.9 75.9 100% 75 30.09 1019.0
23 20:53 Calm 10.00 Fair CLR 75 75 100% 72 30.08 1018.5 0.04
23 19:53 SW 8 G 18 4.00 Rain Fog/Mist FEW012 BKN100 75.9 75.9 87.1 75.9 100% 75 30.09 1018.8 0.14 0.14
23 18:53 SE 7 10.00 Light Rain FEW065 FEW080 SCT100 80.1 75 85% 85 30.07 1018.3
23 17:53 SE 6 10.00 Fair CLR 81 73.9 79% 86 30.06 1018.0
23 16:53 SE 3 10.00 Fair CLR 84.9 73.9 70% 92 30.05 1017.5
23 15:53 NW 6 10.00 Fair CLR 86 73.9 67% 94 30.04 1017.3
23 14:53 Vrbl 3 10.00 Fair CLR 86 72 63% 92 30.06 1017.8
23 13:53 Vrbl 5 10.00 Fair CLR 84 72 84.9 77 67% 90 30.07 1018.2
23 12:53 SW 9 10.00 Fair CLR 82.9 73 72% 89 30.08 1018.5
23 11:53 SW 9 10.00 Fair CLR 82 75 79% 89 30.08 1018.5
23 10:53 SW 8 10.00 Partly Cloudy SCT021 80.1 75 85% 85 30.08 1018.4
23 09:53 W 6 10.00 Partly Cloudy FEW015 SCT026 80.1 75 85% 85 30.07 1018.1
23 08:53 W 7 10.00 Mostly Cloudy BKN013 78.1 75 90% 81 30.06 1017.9
23 07:53 W 7 10.00 Mostly Cloudy BKN011 77 75 77 75.9 94% 78 30.05 1017.4
23 06:53 W 8 10.00 Overcast OVC012 77 75 94% 78 30.02 1016.5
23 05:53 W 10 10.00 Overcast BKN012 OVC017 77 75 94% 78 29.99 1015.6
23 04:53 W 12 10.00 Overcast OVC011 77 75 94% 78 29.98 1015.0
23 03:53 SW 9 10.00 Mostly Cloudy BKN010 75.9 75 97% 75 29.97 1014.7
23 02:53 SW 12 10.00 Mostly Cloudy BKN011 75.9 73.9 94% 75 29.97 1014.8
23 01:53 W 12 10.00 Partly Cloudy SCT011 SCT049 75.9 73.9 79 75.9 94% 75 29.99 1015.3
23 00:53 SW 10 10.00 Mostly Cloudy FEW013 BKN075 BKN090 75.9 73.9 94% 75 29.99 1015.4
22 23:53 SW 12 10.00 A Few Clouds FEW011 77 73.9 90% 78 29.98 1015.2
22 22:53 S 12 10.00 Fair CLR 78.1 75 90% 81 29.97 1014.9
22 21:53 S 7 10.00 A Few Clouds FEW019 78.1 77 97% 81 29.98 1015.0
22 20:53 S 6 10.00 Fair CLR 79 77 94% 83 29.95 1014.2
22 19:53 S 8 10.00 Fair CLR 78.1 75 81 77 90% 81 29.94 1013.7
22 18:53 S 7 10.00 Mostly Cloudy FEW012 SCT026 BKN050 81 78.1 91% 89 29.96 1014.4
22 17:53 S 7 10.00 Light Rain SCT015 BKN022 BKN049 80.1 75.9 87% 85 29.95 1014.1
22 16:53 S 8 10.00 Overcast OVC016 80.1 77 90% 86 29.96 1014.5
22 15:53 S 10 10.00 Overcast BKN015 BKN021 OVC030 81 77 88% 88 29.97 1014.9
22 14:53 SE 6 10.00 Partly Cloudy FEW011 SCT020 SCT110 79 77 94% 83 29.99 1015.6
22 13:53 Calm 10.00 Mostly Cloudy SCT016 BKN024 BKN040 78.1 73.9 80.1 75 87% 81 30.02 1016.5 0.01 0.05
22 12:53 SE 5 7.00 Light Rain FEW009 SCT015 OVC055 75.9 73.9 94% 75 30.04 1017.1 0.04
22 11:53 S 9 G 18 8.00 Light Rain FEW043 SCT060 OVC110 77 73.9 90% 78 30.05 1017.5
22 10:53 S 6 10.00 Mostly Cloudy FEW049 BKN110 78.1 73 85% 81 30.05 1017.5
22 09:53 S 6 10.00 Mostly Cloudy BKN010 BKN110 79 77 94% 83 30.03 1016.9
22 07:53 S 3 10.00 A Few Clouds FEW013 78.1 77 78.1 73.9 97% 81 30.05 1017.6
22 06:53 Calm 8.00 Fair CLR 75 75 100% 72 30.04 1017.1
22 05:53 Calm 10.00 Fair CLR 75.9 75 97% 75 30.03 1016.9
22 04:53 S 5 10.00 Fair CLR 77 75 94% 78 30.03 1016.8
22 03:53 S 5 10.00 Fair CLR 75.9 75 97% 75 30.03 1016.8
22 02:53 S 5 10.00 Fair CLR 75.9 73.9 94% 75 30.04 1017.1
22 01:53 S 6 10.00 Fair CLR 77 75 81 77 94% 78 30.05 1017.5
22 00:53 S 8 10.00 Fair CLR 77 75 94% 78 30.06 1017.9
21 23:53 S 8 10.00 Partly Cloudy SCT012 78.1 75.9 93% 81 30.06 1017.7
21 22:53 S 6 10.00 Fair CLR 79 75 88% 83 30.06 1018.0
21 21:53 S 5 10.00 Fair CLR 79 75 88% 83 30.05 1017.5
21 20:53 SE 5 10.00 Fair CLR 79 73.9 85% 83 30.03 1016.8
21 19:53 SE 5 10.00 Fair CLR 81 73.9 84 81 79% 86 30.01 1016.2
21 18:53 SE 8 10.00 Fair CLR 82 73.9 77% 88 30.01 1016.0
21 17:53 SE 8 10.00 Fair CLR 84 75 74% 92 30.01 1016.0
21 16:53 SE 7 10.00 Fair CLR 84 75 74% 92 30.02 1016.3
21 15:53 S 7 10.00 Fair CLR 82.9 73.9 74% 89 30.02 1016.6
21 14:53 Vrbl 6 10.00 Fair CLR 84 75 74% 92 30.04 1017.1
21 13:53 S 7 10.00 Fair CLR 82.9 75 84 75 77% 90 30.05 1017.3
21 12:53 S 6 10.00 Fair CLR 82 75 79% 89 30.06 1017.7
21 11:53 SW 6 10.00 Mostly Cloudy SCT020 BKN039 81 73.9 79% 86 30.06 1017.7
21 10:53 Vrbl 3 10.00 Mostly Cloudy FEW019 SCT027 BKN032 81 75 82% 87 30.05 1017.6
Date Time (edt) Wind (mph) Vis. (mi.) Weather Sky Cond. Air Dwpt Max. Min. Relative Humidity Wind Chill (°F) Heat Index (°F) altimeter (in) sea level (mb) 1 hr 3 hr 6 hr
6 hour
Temperature (ºF) Pressure Precipitation (in)